EW3086 Weather Reports


Display with metric or nautical units.
time (UTC)temp
F
wind
direction
speed
MPH
gust
MPH
rain 1hr
in
rain 24hr
in
rain mn
in
humidity
%
barometer
mb
20260510151503 55 349 3.0 11.0 0.00 0.00 0.00 70 1016.0
20260510151003 54 347 3.0 12.0 0.00 0.00 0.00 70 1016.1
20260510150503 55 330 3.0 12.0 0.00 0.00 0.00 71 1016.2
20260510150003 54 325 2.0 10.0 0.00 0.00 0.00 71 1016.3
20260510145503 54 306 3.0 12.0 0.00 0.00 0.00 71 1016.4
20260510145003 54 318 3.0 12.0 0.00 0.00 0.00 71 1016.5
20260510144502 54 11 3.0 10.0 0.00 0.00 0.00 71 1016.5
20260510144003 54 350 3.0 11.0 0.00 0.00 0.00 71 1016.6
20260510143503 54 316 3.0 11.0 0.00 0.00 0.00 71 1016.6
20260510143002 54 301 2.0 10.0 0.00 0.00 0.00 71 1016.7
20260510142503 54 319 2.0 10.0 0.00 0.00 0.00 72 1016.8
20260510142004 54 339 3.0 15.0 0.00 0.00 0.00 72 1016.7
20260510141502 54 5 3.0 15.0 0.00 0.00 0.00 72 1016.8
20260510141024 54 6 2.0 9.0 0.00 0.00 0.00 72 1016.8
20260510140502 54 347 2.0 8.0 0.00 0.00 0.00 73 1016.9
20260510140002 54 345 2.0 9.0 0.00 0.00 0.00 73 1016.9
20260510135503 53 334 2.0 9.0 0.00 0.00 0.00 73 1016.9
20260510135024 53 8 2.0 8.0 0.00 0.00 0.00 73 1017.0
20260510134503 53 29 1.0 8.0 0.00 0.00 0.00 74 1017.1
20260510134002 53 350 2.0 9.0 0.00 0.00 0.00 74 1017.2
20260510133502 53 11 2.0 9.0 0.00 0.00 0.00 74 1017.2
20260510133002 53 12 3.0 13.0 0.00 0.00 0.00 74 1017.3
20260510132502 53 14 3.0 13.0 0.00 0.00 0.00 74 1017.2
20260510132003 53 5 3.0 13.0 0.00 0.00 0.00 74 1017.2
20260510131502 52 352 3.0 12.0 0.00 0.00 0.00 75 1017.2
20260510131002 52 345 3.0 10.0 0.00 0.00 0.00 75 1017.2
20260510130523 52 341 4.0 12.0 0.00 0.00 0.00 75 1017.1
20260510130002 52 7 2.0 12.0 0.00 0.00 0.00 75 1017.3
20260510125502 52 2 2.0 11.0 0.00 0.00 0.00 76 1017.3
20260510125003 52 13 3.0 8.0 0.00 0.00 0.00 75 1017.3
20260510124502 52 21 2.0 9.0 0.00 0.00 0.00 76 1017.3
20260510124023 52 351 2.0 9.0 0.00 0.00 0.00 75 1017.4
20260510123502 53 63 1.0 9.0 0.00 0.00 0.00 75 1017.4
20260510123002 53 340 2.0 9.0 0.00 0.00 0.00 75 1017.5
20260510122502 53 290 2.0 9.0 0.00 0.00 0.00 75 1017.6
20260510122003 53 300 2.0 12.0 0.00 0.00 0.00 75 1017.5
20260510121502 53 318 2.0 12.0 0.00 0.00 0.00 74 1017.6
20260510121003 53 309 2.0 11.0 0.00 0.00 0.00 74 1017.6
20260510120502 54 321 2.0 11.0 0.00 0.00 0.00 74 1017.6
20260510120002 54 350 3.0 9.0 0.00 0.00 0.00 74 1017.6
20260510115523 54 351 3.0 9.0 0.00 0.00 0.00 74 1017.6
20260510115002 54 330 2.0 8.0 0.00 0.00 0.00 74 1017.7
20260510114502 54 309 1.0 7.0 0.00 0.00 0.00 75 1017.7
20260510114002 54 321 2.0 11.0 0.00 0.00 0.00 75 1017.7
20260510113502 54 330 3.0 11.0 0.00 0.00 0.00 76 1017.6
20260510113002 53 347 3.0 12.0 0.00 0.00 0.00 76 1017.7
20260510112523 53 9 3.0 13.0 0.00 0.00 0.00 76 1017.7
20260510112002 53 6 4.0 13.0 0.00 0.00 0.00 77 1017.8
20260510111502 53 360 4.0 12.0 0.00 0.00 0.00 76 1017.8
20260510111023 53 349 3.0 10.0 0.00 0.00 0.00 76 1017.9
20260510110502 53 308 2.0 13.0 0.00 0.00 0.00 77 1018.0
20260510110002 53 355 2.0 13.0 0.00 0.00 0.00 77 1017.9
20260510105502 53 8 3.0 15.0 0.00 0.00 0.00 77 1018.0
20260510105002 53 331 4.0 15.0 0.00 0.00 0.00 77 1017.9
20260510104502 53 299 4.0 13.0 0.00 0.00 0.00 77 1018.0
20260510104002 53 322 3.0 13.0 0.00 0.00 0.00 78 1017.9
20260510103502 52 350 3.0 11.0 0.00 0.00 0.00 78 1018.0
20260510103002 52 352 3.0 13.0 0.00 0.00 0.00 78 1018.1
20260510102502 52 27 3.0 13.0 0.00 0.00 0.00 78 1018.1
20260510092527 52 92 1.0 18.0 0.00 0.00 0.00 79 1018.2
20260510092006 52 360 2.0 10.0 0.00 0.00 0.00 79 1018.2
20260510091527 52 330 3.0 10.0 0.00 0.00 0.00 79 1018.1
20260510091006 52 325 4.0 12.0 0.00 0.00 0.00 79 1018.2
20260510090505 52 319 3.0 13.0 0.00 0.00 0.00 78 1018.3
20260510090006 52 313 2.0 13.0 0.00 0.00 0.00 78 1018.2
20260510085506 52 354 3.0 12.0 0.00 0.00 0.00 78 1018.3
20260510085006 52 360 3.0 13.0 0.00 0.00 0.00 78 1018.3
20260510084506 52 323 2.0 13.0 0.00 0.00 0.00 78 1018.4
20260510084006 52 285 2.0 8.0 0.00 0.00 0.00 78 1018.4
20260510083506 52 344 2.0 9.0 0.00 0.00 0.00 78 1018.4
20260510083027 52 325 2.0 9.0 0.00 0.00 0.00 78 1018.4
20260510082506 52 302 2.0 9.0 0.00 0.00 0.00 78 1018.4
20260510082006 52 300 2.0 10.0 0.00 0.00 0.00 78 1018.5
20260510081506 52 311 2.0 10.0 0.00 0.00 0.00 78 1018.5
20260510081007 52 302 2.0 8.0 0.00 0.00 0.00 78 1018.5
20260510080506 52 300 2.0 16.0 0.00 0.00 0.00 78 1018.5
20260510080027 52 302 2.0 16.0 0.00 0.00 0.00 78 1018.5
20260510075505 52 306 1.0 8.0 0.00 0.00 0.00 79 1018.5
20260510075027 52 356 2.0 10.0 0.00 0.00 0.00 79 1018.5
20260510074506 52 358 2.0 10.0 0.00 0.00 0.00 79 1018.4
20260510074006 52 329 2.0 7.0 0.00 0.00 0.00 78 1018.5
20260510073506 52 298 2.0 8.0 0.00 0.00 0.00 78 1018.4
20260510073006 52 295 2.0 11.0 0.00 0.00 0.00 78 1018.4
20260510072506 51 299 2.0 11.0 0.00 0.00 0.00 78 1018.3
20260510072006 51 305 2.0 10.0 0.00 0.00 0.00 78 1018.3
20260510071006 51 352 3.0 10.0 0.00 0.00 0.00 78 1018.2
20260510070506 51 12 3.0 11.0 0.00 0.00 0.00 78 1018.1
20260510070006 51 8 2.0 11.0 0.00 0.00 0.00 78 1018.1
20260510065505 51 329 2.0 9.0 0.00 0.00 0.00 79 1018.2
20260510065026 51 329 2.0 9.0 0.00 0.00 0.00 79 1018.1
20260510064505 51 5 2.0 10.0 0.00 0.00 0.00 79 1018.2
20260510064005 51 14 3.0 14.0 0.00 0.00 0.00 79 1018.2
20260510063506 51 359 2.0 14.0 0.00 0.00 0.00 79 1018.1
20260510063005 51 355 3.0 10.0 0.00 0.00 0.00 79 1018.1
20260510062505 51 317 3.0 10.0 0.00 0.00 0.00 79 1017.9
20260510062006 51 258 2.0 11.0 0.00 0.00 0.00 79 1018.0
20260510061506 51 257 2.0 11.0 0.00 0.00 0.00 79 1018.0
20260510061005 51 252 1.0 5.0 0.00 0.00 0.00 79 1018.0
20260510060505 51 288 2.0 7.0 0.00 0.00 0.00 79 1018.0
20260510060006 51 306 2.0 7.0 0.00 0.00 0.00 79 1018.0
20260510055526 51 281 1.0 11.0 0.00 0.00 0.00 79 1017.9
20260510055005 51 278 2.0 11.0 0.00 0.00 0.00 79 1017.9
20260510054526 51 292 2.0 11.0 0.00 0.00 0.00 79 1017.8
20260510054005 51 290 2.0 8.0 0.00 0.00 0.00 79 1017.9
20260510053505 51 277 2.0 8.0 0.00 0.00 0.00 79 1018.0
20260510053005 51 260 3.0 8.0 0.00 0.00 0.00 79 1017.9
20260510052505 51 268 2.0 10.0 0.00 0.00 0.00 79 1017.9
20260510052005 51 294 3.0 10.0 0.00 0.00 0.00 79 1017.9
20260510051505 51 309 3.0 12.0 0.00 0.00 0.00 79 1017.9
20260510051005 51 297 3.0 12.0 0.00 0.00 0.00 79 1017.8
20260510050505 51 238 2.0 10.0 0.00 0.00 0.00 79 1018.0
20260510050005 51 249 3.0 10.0 0.00 0.00 0.00 79 1018.0
20260510045505 51 252 4.0 9.0 0.00 0.00 0.00 79 1018.0
20260510045005 51 228 3.0 9.0 0.00 0.00 0.00 79 1017.9
20260510044505 51 259 2.0 8.0 0.00 0.00 0.00 79 1017.9
20260510044005 51 308 1.0 8.0 0.00 0.00 0.00 79 1017.9
20260510043526 51 248 1.0 7.0 0.00 0.00 0.00 79 1017.9
20260510043005 51 253 2.0 8.0 0.00 0.00 0.00 79 1017.9
20260510042505 51 241 2.0 9.0 0.00 0.00 0.00 79 1018.0
20260510042005 51 219 2.0 9.0 0.00 0.00 0.00 79 1018.0
20260510041526 51 258 3.0 10.0 0.00 0.00 0.00 79 1018.0
20260510041005 51 306 2.0 10.0 0.00 0.00 0.00 79 1018.0
20260510040505 51 310 2.0 9.0 0.00 0.00 0.00 79 1018.1
20260510040005 51 275 2.0 10.0 0.00 0.00 0.00 79 1018.2
20260510035505 51 260 2.0 10.0 0.00 0.00 0.00 79 1018.2
20260510035005 51 287 2.0 8.0 0.00 0.00 0.00 79 1018.2
20260510034505 51 275 2.0 8.0 0.00 0.00 0.00 79 1018.2
20260510034005 51 203 1.0 6.0 0.00 0.00 0.00 79 1018.3
20260510033505 51 280 1.0 6.0 0.00 0.00 0.00 79 1018.2
20260510033005 51 307 2.0 9.0 0.00 0.00 0.00 78 1018.2
20260510032526 51 312 2.0 11.0 0.00 0.00 0.00 78 1018.2
20260510032005 51 312 2.0 11.0 0.00 0.00 0.00 78 1018.2
20260510031505 51 303 2.0 9.0 0.00 0.00 0.00 78 1018.1
20260510031026 51 306 2.0 10.0 0.00 0.00 0.00 78 1018.2
20260510030505 51 278 2.0 10.0 0.00 0.00 0.00 78 1018.3
20260510030005 51 274 2.0 7.0 0.00 0.00 0.00 78 1018.2
20260510025505 51 273 1.0 7.0 0.00 0.00 0.00 78 1018.2
20260510025005 51 268 2.0 7.0 0.00 0.00 0.00 77 1018.2
20260510024526 51 284 2.0 12.0 0.00 0.00 0.00 78 1018.3
20260510024005 51 241 2.0 12.0 0.00 0.00 0.00 78 1018.2
20260510023505 51 222 2.0 8.0 0.00 0.00 0.00 78 1018.2
20260510023005 52 178 2.0 9.0 0.00 0.00 0.00 78 1018.3
20260510022505 52 173 2.0 9.0 0.00 0.00 0.00 78 1018.3
20260510022026 52 203 2.0 8.0 0.00 0.00 0.00 78 1018.4
20260510021526 52 196 3.0 8.0 0.00 0.00 0.00 78 1018.4
20260510021005 52 183 2.0 21.0 0.00 0.00 0.00 78 1018.4
20260510020526 52 190 2.0 21.0 0.00 0.00 0.00 78 1018.4
20260510020005 52 207 2.0 8.0 0.00 0.00 0.00 78 1018.4
20260510015526 52 192 2.0 8.0 0.00 0.00 0.00 78 1018.3
20260510015005 53 166 1.0 5.0 0.00 0.00 0.00 78 1018.2
20260510014505 53 316 0.0 4.0 0.00 0.00 0.00 78 1018.2
20260510014005 53 195 1.0 7.0 0.00 0.00 0.00 78 1018.1
20260510013505 53 180 0.0 7.0 0.00 0.00 0.00 78 1018.1
20260510013005 53 178 0.0 3.0 0.00 0.00 0.00 78 1018.2
20260510012526 53 178 1.0 3.0 0.00 0.00 0.00 78 1018.1
20260510012005 53 189 1.0 6.0 0.00 0.00 0.00 78 1018.1
20260510011505 53 184 1.0 6.0 0.00 0.00 0.00 78 1018.2
20260510011005 54 206 1.0 8.0 0.00 0.00 0.00 79 1018.1
20260510010505 54 233 0.0 8.0 0.00 0.00 0.00 79 1018.1
20260510010005 54 178 2.0 7.0 0.00 0.00 0.00 79 1018.1
20260510005505 54 179 2.0 7.0 0.00 0.00 0.00 79 1018.0
20260510005005 54 204 1.0 6.0 0.00 0.00 0.00 79 1017.9
20260510004505 54 223 1.0 7.0 0.00 0.00 0.00 79 1018.1
20260510004026 54 207 1.0 7.0 0.00 0.00 0.00 79 1018.1
20260510003505 54 202 1.0 7.0 0.00 0.00 0.00 79 1018.0
20260510003005 54 185 1.0 6.0 0.00 0.00 0.00 79 1018.1
20260510002526 55 189 0.0 5.0 0.00 0.00 0.00 79 1018.1
20260510002005 55 163 1.0 9.0 0.00 0.00 0.00 79 1018.1
20260510001505 55 170 1.0 9.0 0.00 0.00 0.00 79 1018.0
20260510001005 55 189 1.0 7.0 0.00 0.00 0.00 79 1017.9
20260510000504 55 274 1.0 5.0 0.00 0.00 0.00 79 1017.9
20260510000005 55 355 0.0 5.0 0.00 0.00 0.00 80 1017.9
20260509235505 55 131 1.0 6.0 0.00 0.00 0.00 80 1018.0
20260509235005 55 160 1.0 6.0 0.00 0.00 0.00 80 1018.0
20260509234504 55 153 0.0 3.0 0.00 0.00 0.00 80 1017.9
20260509234005 55 153 0.0 3.0 0.00 0.00 0.00 80 1018.0
20260509233504 55 156 0.0 5.0 0.00 0.00 0.00 80 1017.9
20260509233004 55 169 0.0 5.0 0.00 0.00 0.00 80 1018.0
20260509232505 55 194 0.0 5.0 0.00 0.00 0.00 80 1018.0
20260509232005 55 130 1.0 5.0 0.00 0.00 0.00 80 1017.9
20260509231504 55 41 0.0 5.0 0.00 0.00 0.00 80 1017.9
20260509231005 56 0 0.0 0.0 0.00 0.00 0.00 80 1017.8
20260509230505 56 0 0.0 0.0 0.00 0.00 0.00 80 1017.9
20260509230008 56 259 0.0 7.0 0.00 0.00 0.00 79 1017.9
20260509225526 56 259 0.0 7.0 0.00 0.00 0.00 79 1017.9
20260509225004 56 0 0.0 0.0 0.00 0.00 0.00 79 1017.9
20260509224504 56 186 0.0 3.0 0.00 0.00 0.00 79 1017.8
20260509224005 56 186 0.0 3.0 0.00 0.00 0.00 79 1017.8
20260509223504 56 0 0.0 0.0 0.00 0.00 0.00 79 1017.7
20260509223005 56 190 0.0 6.0 0.00 0.00 0.00 79 1017.7
20260509222505 56 188 0.0 6.0 0.00 0.00 0.00 79 1017.6
20260509222026 56 184 0.0 6.0 0.00 0.00 0.00 79 1017.6
20260509221504 56 171 0.0 5.0 0.00 0.00 0.00 78 1017.6
20260509221025 56 167 0.0 5.0 0.00 0.00 0.00 78 1017.5
20260509220504 56 188 0.0 4.0 0.00 0.00 0.00 77 1017.6
20260509220025 56 216 0.0 3.0 0.00 0.00 0.00 77 1017.6
20260509215504 57 150 0.0 2.0 0.00 0.00 0.00 76 1017.5
20260509215004 57 154 0.0 2.0 0.00 0.00 0.00 76 1017.5
20260509214504 57 162 0.0 2.0 0.00 0.00 0.00 76 1017.5
20260509214004 57 222 0.0 2.0 0.00 0.00 0.00 76 1017.5
20260509213504 58 360 1.0 8.0 0.00 0.00 0.00 75 1017.4
20260509213005 58 26 1.0 9.0 0.00 0.00 0.00 76 1017.3
20260509212504 58 38 0.0 9.0 0.00 0.00 0.00 76 1017.3
20260509212004 58 209 0.0 4.0 0.00 0.00 0.00 76 1017.2
20260509211504 58 354 0.0 1.0 0.00 0.00 0.00 76 1017.1
20260509211004 58 37 1.0 10.0 0.00 0.00 0.00 76 1017.1
20260509210525 58 10 2.0 10.0 0.00 0.00 0.00 76 1017.1
20260509210005 58 355 1.0 7.0 0.00 0.00 0.00 77 1017.0
20260509205504 58 14 1.0 7.0 0.00 0.00 0.00 78 1016.9
20260509205005 58 352 1.0 5.0 0.00 0.00 0.00 78 1017.0
20260509204504 57 337 1.0 4.0 0.00 0.00 0.00 79 1016.9
20260509204004 57 339 0.0 4.0 0.00 0.00 0.00 79 1017.0
20260509203504 56 0 0.0 0.0 0.00 0.00 0.00 79 1016.9
20260509203004 56 0 0.0 0.0 0.00 0.00 0.00 78 1017.0
20260509202504 56 0 0.0 0.0 0.00 0.00 0.00 78 1016.9
20260509202025 57 0 0.0 0.0 0.00 0.00 0.00 78 1016.9
20260509201504 57 0 0.0 0.0 0.00 0.00 0.00 78 1016.8
20260509201025 57 0 0.0 0.0 0.00 0.00 0.00 78 1016.8
20260509200504 57 0 0.0 0.0 0.00 0.00 0.00 77 1016.6
20260509200004 57 0 0.0 0.0 0.00 0.00 0.00 77 1016.5
20260509195504 57 0 0.0 0.0 0.00 0.00 0.00 76 1016.5
20260509195004 58 19 0.0 1.0 0.00 0.00 0.00 76 1016.5
20260509194504 58 19 0.0 1.0 0.00 0.00 0.00 75 1016.4
20260509194004 58 0 0.0 0.0 0.00 0.00 0.00 75 1016.4
20260509193504 59 0 0.0 0.0 0.00 0.00 0.00 75 1016.4
20260509193004 59 0 0.0 0.0 0.00 0.00 0.00 74 1016.4
20260509192504 60 0 0.0 0.0 0.00 0.00 0.00 74 1016.4
20260509192004 60 0 0.0 0.0 0.00 0.00 0.00 74 1016.5
20260509191504 60 11 0.0 1.0 0.00 0.00 0.00 74 1016.5
20260509191004 60 7 0.0 4.0 0.00 0.00 0.00 74 1016.5
20260509190504 60 358 0.0 4.0 0.00 0.00 0.00 73 1016.5
20260509190004 60 343 0.0 1.0 0.00 0.00 0.00 73 1016.5
20260509185504 61 308 0.0 4.0 0.00 0.00 0.00 73 1016.4
20260509185004 61 314 0.0 4.0 0.00 0.00 0.00 73 1016.4
20260509184504 61 320 0.0 4.0 0.00 0.00 0.00 72 1016.5
20260509184004 61 326 0.0 4.0 0.00 0.00 0.00 72 1016.5
20260509183504 61 337 1.0 3.0 0.00 0.00 0.00 72 1016.4
20260509183025 61 339 0.0 3.0 0.00 0.00 0.00 72 1016.4
20260509182504 62 340 0.0 3.0 0.00 0.00 0.00 71 1016.4
20260509182005 62 348 1.0 4.0 0.00 0.00 0.00 71 1016.3
20260509181504 62 344 2.0 7.0 0.00 0.00 0.00 70 1016.2
20260509181004 62 345 2.0 7.0 0.00 0.00 0.00 69 1016.3
20260509180504 62 335 2.0 6.0 0.00 0.00 0.00 68 1016.4
20260509180004 62 329 2.0 7.0 0.00 0.00 0.00 68 1016.1
20260509175504 62 332 2.0 7.0 0.00 0.00 0.00 68 1016.2